TimeMST,TemperatureF,Dew PointF,Humidity,Sea Level PressureIn,VisibilityMPH,Wind Direction,Wind SpeedMPH,Gust SpeedMPH,PrecipitationIn,Events,Conditions,WindDirDegrees,DateUTC
12:56 AM,19.9,17.1,89,29.83,10.0,NW,9.2,-,N/A,,Mostly Cloudy,310,2013-02-10 07:56:00
1:56 AM,21.9,19.0,89,29.81,10.0,NNW,8.1,-,N/A,,Clear,330,2013-02-10 08:56:00
2:32 AM,21.2,19.4,93,29.72,9.0,NW,5.8,-,N/A,,Mostly Cloudy,310,2013-02-10 09:32:00
2:41 AM,23.0,21.2,93,29.72,9.0,NW,6.9,-,N/A,,Mostly Cloudy,320,2013-02-10 09:41:00
2:56 AM,24.1,21.9,91,29.80,7.0,NW,4.6,-,N/A,,Overcast,310,2013-02-10 09:56:00
3:06 AM,24.8,23.0,93,29.72,7.0,NW,6.9,-,N/A,,Overcast,310,2013-02-10 10:06:00
3:26 AM,24.8,24.8,100,29.72,1.8,NW,11.5,-,N/A,,Overcast,320,2013-02-10 10:26:00
3:43 AM,26.6,24.8,93,29.72,3.0,NW,10.4,-,N/A,,Overcast,320,2013-02-10 10:43:00
3:56 AM,26.1,24.1,92,29.80,6.0,NW,9.2,-,N/A,,Overcast,320,2013-02-10 10:56:00
4:10 AM,26.6,24.8,93,29.73,7.0,NW,8.1,-,N/A,,Overcast,320,2013-02-10 11:10:00
4:56 AM,27.0,24.1,89,29.81,9.0,NW,13.8,-,N/A,,Overcast,320,2013-02-10 11:56:00
5:31 AM,26.6,24.8,93,29.73,10.0,NW,15.0,-,N/A,,Overcast,320,2013-02-10 12:31:00
5:56 AM,27.0,25.0,92,29.82,10.0,NNW,11.5,-,N/A,,Overcast,330,2013-02-10 12:56:00
6:25 AM,26.6,24.8,93,29.74,10.0,NNW,9.2,-,N/A,,Overcast,330,2013-02-10 13:25:00
6:52 AM,28.4,24.8,86,29.74,10.0,NNW,11.5,-,N/A,,Overcast,330,2013-02-10 13:52:00
6:56 AM,28.0,25.0,88,29.83,10.0,NNW,13.8,-,N/A,,Overcast,330,2013-02-10 13:56:00
7:24 AM,28.4,26.6,93,29.75,3.0,NNW,15.0,-,0.00,Rain,Light Freezing Rain,330,2013-02-10 14:24:00
7:36 AM,28.4,26.6,93,29.75,3.0,NNW,13.8,-,0.00,Rain,Light Freezing Rain,330,2013-02-10 14:36:00
7:56 AM,28.0,26.1,92,29.84,3.0,NNW,16.1,24.2,0.00,Rain,Light Freezing Rain,340,2013-02-10 14:56:00
8:04 AM,28.4,26.6,93,29.76,1.8,NNW,16.1,24.2,0.00,Rain,Light Freezing Rain,340,2013-02-10 15:04:00
8:11 AM,28.4,26.6,93,29.76,2.0,NNW,17.3,25.3,0.00,Snow,Light Snow,340,2013-02-10 15:11:00
8:24 AM,28.4,26.6,93,29.76,6.0,NNW,16.1,27.6,0.00,,Overcast,340,2013-02-10 15:24:00
8:56 AM,28.0,25.0,88,29.85,9.0,NNW,16.1,27.6,0.00,,Overcast,340,2013-02-10 15:56:00
9:23 AM,28.4,24.8,86,29.76,9.0,NNW,20.7,27.6,0.00,,Overcast,330,2013-02-10 16:23:00
9:56 AM,27.0,23.0,85,29.86,10.0,NW,27.6,35.7,0.00,,Overcast,320,2013-02-10 16:56:00
10:56 AM,27.0,21.0,78,29.88,10.0,NW,27.6,34.5,0.00,Snow,Light Snow,320,2013-02-10 17:56:00
11:15 AM,26.6,21.2,80,29.79,9.0,NNW,25.3,33.4,0.00,Snow,Light Snow,330,2013-02-10 18:15:00
11:56 AM,26.1,19.9,78,29.89,9.0,NNW,25.3,36.8,0.00,,Overcast,330,2013-02-10 18:56:00
12:20 PM,26.6,19.4,74,29.78,10.0,NW,21.9,-,N/A,,Overcast,320,2013-02-10 19:20:00
12:39 PM,26.6,21.2,80,29.78,9.0,NW,29.9,34.5,0.00,Snow,Light Snow,320,2013-02-10 19:39:00
12:48 PM,26.6,19.4,74,29.78,10.0,NW,21.9,34.5,0.00,,Overcast,320,2013-02-10 19:48:00
12:56 PM,26.1,19.9,78,29.88,10.0,NW,25.3,34.5,0.00,,Overcast,320,2013-02-10 19:56:00
1:08 PM,26.6,19.4,74,29.78,10.0,NW,27.6,34.5,N/A,,Overcast,320,2013-02-10 20:08:00
1:56 PM,25.0,18.0,75,29.89,10.0,NNW,25.3,36.8,N/A,,Overcast,330,2013-02-10 20:56:00
2:08 PM,24.8,17.6,74,29.80,10.0,NNW,26.5,33.4,N/A,,Overcast,330,2013-02-10 21:08:00
2:40 PM,24.8,19.4,80,29.81,9.0,NNW,24.2,31.1,0.00,Snow,Light Snow,330,2013-02-10 21:40:00
2:56 PM,24.1,19.0,81,29.92,9.0,NNW,25.3,32.2,0.00,Snow,Light Snow,330,2013-02-10 21:56:00
3:56 PM,21.9,16.0,78,29.95,9.0,NW,24.2,28.8,0.00,Snow,Light Snow,320,2013-02-10 22:56:00
4:34 PM,21.2,15.8,80,29.85,7.0,NW,21.9,34.5,0.00,Snow,Light Snow,320,2013-02-10 23:34:00
4:56 PM,21.0,16.0,81,29.96,9.0,NW,20.7,31.1,0.00,Snow,Light Snow,320,2013-02-10 23:56:00
5:17 PM,19.4,15.8,86,29.85,8.0,NW,25.3,34.5,0.00,Snow,Light Snow,310,2013-02-11 00:17:00
5:26 PM,19.4,15.8,86,29.86,8.0,NW,25.3,35.7,0.00,Snow,Light Snow,310,2013-02-11 00:26:00
5:36 PM,19.4,15.8,86,29.86,7.0,NW,24.2,33.4,0.00,Snow,Light Snow,310,2013-02-11 00:36:00
5:56 PM,19.9,14.0,78,29.98,9.0,WNW,26.5,33.4,0.00,Snow,Light Snow,300,2013-02-11 00:56:00
6:22 PM,19.4,14.0,80,29.88,10.0,NW,21.9,32.2,0.00,,Overcast,310,2013-02-11 01:22:00
6:45 PM,19.4,14.0,80,29.90,10.0,NW,20.7,28.8,0.00,,Overcast,310,2013-02-11 01:45:00
6:53 PM,19.4,14.0,80,29.89,9.0,NW,23.0,28.8,0.00,Snow,Light Snow,320,2013-02-11 01:53:00
6:56 PM,19.0,14.0,81,30.00,9.0,NW,19.6,28.8,0.00,Snow,Light Snow,310,2013-02-11 01:56:00
7:34 PM,19.4,14.0,80,29.91,8.0,NW,20.7,29.9,0.00,Snow,Light Snow,320,2013-02-11 02:34:00
7:56 PM,19.0,14.0,81,30.02,8.0,NW,18.4,-,0.00,Snow,Light Snow,310,2013-02-11 02:56:00
8:56 PM,18.0,14.0,84,30.04,6.0,NW,20.7,27.6,0.00,Snow,Light Snow,310,2013-02-11 03:56:00
9:56 PM,19.0,15.1,85,30.05,6.0,NW,19.6,-,0.00,Snow,Light Snow,310,2013-02-11 04:56:00
10:56 PM,19.0,15.1,85,30.06,8.0,NW,13.8,-,0.00,Snow,Light Snow,310,2013-02-11 05:56:00
11:56 PM,19.0,15.1,85,30.07,8.0,NW,17.3,-,0.00,Snow,Light Snow,310,2013-02-11 06:56:00